User: anonymous   Login
Location: Beekmeers
(50.8953°N, 3.6968°E)
Time: 02:53:03
(UTC+00:00)
Language:

Cosmos 1892 - Orbit

View from above orbital plane
View from above orbital plane
View from above satellite
View from above satellite

Ground track
Ground track

The orbit data is extracted from the following two-line orbital elements,

1 18421U 87088A   24194.57218316  .00015571  00000-0  45037-3 0  9991
2 18421  82.4903 231.7825 0008548 258.4812 101.5471 15.35454798 10569
Epoch (UTC): 12 July 2024 13:43:56
Eccentricity: 0.0008548
inclination: 82.4903°
perigee height: 454 km
apogee height: 465 km
right ascension of ascending node: 231.7825°
argument of perigee: 258.4812°
revolutions per day: 15.35454798
mean anomaly at epoch: 101.5471°
orbit number at epoch: 1056

The dashed part of the orbit path shows where the satellite is in the earth's shadow,  

DLR